Theta_e
320 320 319 317 320 327 333 330 329 332 330 328 327 324 322 321 320 319 318 317 316 315 315 313 310 312 309 310 311 315 311 311 306 306 309 308 309 310 309 312 316 314 312
319 319 316 316 320 327 329 328 328 327 325 322 321 319 317 315 314 313 311 310 309 307 306 306 306 307 306 307 307 310 309 308 304 301 304 306 308 310 313 315 314 313 311
317 317 318 315 319 323 324 325 320 318 316 313 313 311 310 310 310 309 308 306 305 305 304 304 304 304 304 304 305 305 307 305 305 302 303 307 309 311 314 315 314 315 313
313 315 314 315 319 321 321 317 313 312 309 307 307 307 308 307 307 307 306 305 305 304 304 304 303 303 304 304 306 306 306 307 307 305 305 308 308 312 312 311 311 313 312
311 311 315 317 320 321 315 313 309 306 306 305 306 306 306 306 306 306 306 306 305 305 305 305 305 306 306 306 306 305 306 307 305 305 306 307 309 310 309 311 309 311 311
308 310 314 314 318 316 311 307 304 304 303 304 303 303 302 302 302 304 305 304 305 304 303 305 303 304 305 305 306 307 307 304 303 303 308 307 308 308 310 309 309 308 303
308 311 312 315 316 310 305 303 301 301 302 301 301 301 301 301 300 301 302 302 302 302 302 302 302 303 304 304 305 306 308 308 310 312 308 308 306 309 309 309 308 307 305
308 310 312 315 310 303 301 300 300 299 299 299 299 299 300 300 299 299 301 302 302 302 303 303 302 303 304 304 307 309 308 307 310 310 309 308 308 309 310 310 312 312 307
306 310 312 311 304 300 299 298 298 298 298 298 299 299 299 299 298 298 302 303 302 304 305 307 307 305 298 298 307 306 306 306 302 302 301 300 301 301 303 308 305 305 301
305 309 308 304 300 298 297 297 298 298 299 299 300 302 301 300 296 297 301 303 304 305 305 304 297 299 296 297 311 309 306 306 307 305 305 304 306 304 303 305 302 299 300
307 305 303 300 298 298 298 298 299 299 299 300 302 304 304 303 300 296 297 304 305 303 304 303 302 296 295 296 301 307 303 303 308 308 308 308 305 304 302 301 301 298 296
303 301 299 298 298 299 298 299 299 301 302 304 303 302 303 304 298 296 296 298 304 306 302 301 300 294 295 296 301 296 297 302 306 304 302 302 302 301 300 299 299 299 299
300 298 297 298 298 298 298 302 304 305 303 302 302 301 302 304 303 297 296 298 299 304 305 301 297 295 296 301 298 299 303 307 305 304 302 302 302 302 301 299 299 298 297
297 297 298 297 298 299 302 305 304 303 302 302 301 300 302 301 302 308 307 307 298 304 302 306 301 301 300 304 306 307 308 308 305 304 303 302 302 300 298 299 297 297 295
297 298 298 299 301 300 299 301 301 296 299 301 300 301 300 300 299 295 299 305 303 300 304 307 306 306 306 306 306 307 306 306 304 303 301 299 298 297 296 297 296 295 293
297 297 298 302 303 302 301 298 291 292 292 291 291 297 300 293 292 293 294 293 294 296 304 303 305 305 304 304 304 306 304 302 302 302 299 298 296 295 295 296 295 294 292
297 297 301 303 303 303 302 301 298 296 293 292 291 292 292 291 293 294 294 294 293 299 303 303 304 303 304 303 302 306 302 303 303 300 298 297 296 295 295 294 294 294 292
300 298 306 305 304 303 303 302 303 301 300 300 294 296 293 293 293 293 294 295 303 303 303 303 304 303 303 303 302 306 302 303 300 299 299 297 296 295 294 293 294 294 293
303 306 307 306 305 303 304 303 303 303 302 302 302 299 297 294 294 294 296 304 303 302 303 302 303 303 303 305 303 305 305 302 301 300 300 300 298 296 295 295 294 292 293
307 299 303 305 305 305 305 304 304 304 303 302 301 301 302 300 300 301 303 303 303 303 303 302 304 304 303 304 304 304 305 303 302 301 301 300 300 299 298 297 297 297 297
306 306 300 306 306 305 305 303 302 301 299 298 298 296 286 299 299 300 301 302 302 303 303 303 303 304 304 304 303 303 303 304 302 302 302 303 301 301 302 301 302 303 300
306 306 306 306 305 304 302 302 302 299 298 297 298 297 289 300 300 301 301 302 303 304 305 305 303 303 303 303 304 303 303 303 303 304 303 304 304 304 303 304 303 303 304
307 306 306 305 303 298 302 302 301 299 299 299 300 299 299 299 299 300 300 302 303 304 305 305 304 302 303 304 305 304 303 304 305 305 305 305 304 304 304 303 303 303 302
307 305 304 303 303 302 302 300 299 296 299 300 300 299 299 299 299 300 300 301 302 303 304 304 304 303 304 304 305 304 302 301 308 307 307 305 305 303 304 304 303 303 303
305 305 303 302 301 300 300 300 300 300 300 300 299 299 299 300 299 299 300 300 300 301 302 302 303 303 303 303 302 302 291 288 301 295 307 307 305 306 305 304 304 304 304
305 304 303 302 302 301 301 300 300 300 300 299 300 300 300 299 299 299 299 299 298 298 299 300 302 302 303 302 298 289 288 288 297 290 307 306 305 305 305 304 304 303 304
Wind_Speed
13 11 13 13 21 12 8 9 7 10 10 11 10 11 10 11 11 9 7 7 5 5 6 7 9 9 7 7 7 5 5 4 5 4 3 3 2 1 5 6 7 8 9
11 12 9 11 19 14 13 12 13 11 10 10 10 9 9 9 9 8 7 8 8 9 9 10 9 7 9 9 7 11 6 8 4 10 3 3 2 4 5 4 3 2 9
15 12 11 8 12 13 11 11 10 10 10 10 9 9 8 7 7 7 8 9 9 9 9 11 10 9 10 7 7 6 6 6 5 7 2 3 5 4 7 4 6 6 4
14 15 10 7 12 7 10 9 9 10 9 9 8 8 7 7 7 7 9 10 10 10 10 11 10 9 8 7 8 5 9 3 6 5 3 3 4 6 3 4 7 7 4
14 14 13 9 8 7 8 8 9 9 9 8 9 9 10 8 6 7 9 10 11 12 12 11 12 15 14 11 5 5 9 3 4 3 4 6 3 3 1 1 2 7 6
13 14 15 10 8 8 8 9 9 10 10 10 11 11 11 9 15 11 9 8 8 12 12 13 10 14 11 14 16 12 7 2 3 6 3 8 8 7 6 5 4 6 6
11 13 12 9 7 9 9 8 10 10 9 10 11 11 11 10 16 13 14 8 9 8 9 8 7 7 8 6 7 3 8 14 11 11 11 8 6 6 5 4 2 2 6
12 13 12 6 8 9 9 8 9 8 9 9 9 9 8 8 13 10 9 6 6 7 5 6 7 6 6 3 2 9 11 10 9 9 10 10 10 9 6 7 7 7 9
11 13 6 11 10 9 8 9 8 8 9 8 7 8 8 8 11 9 4 3 2 9 9 10 8 7 10 8 6 9 9 9 9 13 11 8 9 12 15 9 9 4 6
9 8 13 11 10 9 9 9 8 8 8 5 7 5 7 6 9 10 8 6 8 7 9 10 14 9 10 14 6 8 8 7 9 9 6 4 5 13 18 13 8 6 5
6 10 12 11 11 10 9 7 7 8 6 5 6 9 10 9 6 9 6 3 3 7 7 6 5 7 6 9 10 8 5 5 8 8 6 6 11 9 10 10 10 8 6
9 13 11 10 8 7 9 6 6 6 6 6 9 9 8 10 9 8 10 9 8 10 7 3 1 6 5 9 5 5 6 3 7 7 8 8 10 8 8 9 10 9 8
12 12 11 10 8 6 7 8 5 6 8 7 8 7 5 5 6 8 10 10 8 7 5 3 1 5 5 9 12 13 9 5 6 8 9 8 8 5 7 7 8 12 12
14 11 10 10 7 5 2 2 6 8 8 9 9 9 8 6 7 5 6 5 2 5 2 3 8 8 11 10 9 9 8 9 9 9 10 8 7 7 7 6 7 6 8
12 11 11 6 5 10 11 9 11 11 10 9 8 8 9 9 7 7 7 8 7 5 3 7 5 5 8 9 8 10 5 11 11 9 10 8 8 8 8 7 7 7 7
11 9 7 8 11 10 13 12 16 16 18 16 16 11 9 4 7 9 10 11 10 11 9 7 10 10 11 9 10 11 8 14 10 12 8 8 9 8 7 7 7 8 8
12 11 8 13 13 11 12 13 13 13 15 14 12 11 10 8 12 12 11 11 4 11 7 8 13 11 11 9 6 10 9 12 13 10 9 9 8 8 8 8 8 9 10
11 10 12 14 12 12 11 11 11 11 11 11 10 10 12 12 12 8 6 7 7 9 8 9 13 11 9 9 6 11 7 13 11 8 8 10 9 9 9 9 9 9 10
11 7 13 12 11 9 11 11 11 11 11 11 11 9 7 8 10 13 13 11 11 11 12 10 11 11 9 11 8 9 12 10 8 7 8 8 10 9 10 9 7 9 12
5 13 15 12 10 10 10 10 9 10 10 11 11 10 9 10 11 11 11 12 11 11 12 11 12 11 10 11 10 8 9 9 7 6 7 8 9 8 8 6 4 9 11
11 10 11 11 10 10 10 11 10 10 11 12 12 11 8 11 11 11 11 12 12 12 11 11 13 12 10 11 10 10 9 10 7 7 5 7 9 7 6 6 7 9 14
11 11 11 11 11 11 11 10 10 12 13 13 12 9 6 12 12 12 13 13 12 12 11 12 13 12 10 9 11 8 8 10 7 8 6 7 8 8 7 10 8 7 10
11 13 12 12 12 11 10 10 11 12 12 13 12 11 12 12 13 13 13 13 13 14 14 13 13 12 12 9 10 9 7 7 9 7 7 9 8 8 10 10 10 10 9
12 14 13 11 11 11 11 12 12 13 13 12 12 12 12 12 13 14 13 13 13 13 13 14 14 16 12 12 10 11 9 8 8 10 10 9 8 9 10 11 11 13 11
13 11 13 12 12 11 11 12 12 12 12 12 12 12 12 12 13 13 13 12 13 14 16 14 13 17 19 21 18 16 13 11 9 6 10 11 13 13 11 11 12 12 13
12 12 12 11 11 11 11 11 12 12 12 12 11 12 12 12 12 12 12 14 13 14 15 13 16 21 20 17 18 15 12 12 11 9 10 10 11 11 11 13 16 12 14
Wind_Direction
345 358 0 351 322 353 0 5 8 14 22 15 3 8 2 353 355 351 352 343 9 28 41 51 49 38 33 35 26 49 74 60 113 93 71 107 68 272 154 223 192 204 166
332 339 340 359 316 348 350 12 8 9 15 13 13 10 10 7 10 18 36 47 55 58 52 60 59 60 50 50 41 49 35 58 78 104 120 112 171 258 234 220 232 180 154
326 323 322 358 310 339 355 10 9 14 27 28 21 20 19 22 38 53 71 73 69 66 65 66 61 59 66 53 47 57 26 88 90 110 114 160 196 195 188 207 204 200 233
325 315 304 314 310 330 353 17 21 32 35 36 33 31 36 43 55 65 77 79 79 76 72 69 60 54 58 69 67 22 80 79 80 69 72 171 180 207 214 187 196 220 109
316 303 306 289 303 355 22 30 41 43 44 43 46 42 40 39 55 75 73 74 76 74 73 74 81 74 63 60 66 27 53 62 106 160 198 217 107 76 85 160 57 108 95
306 295 301 301 326 32 47 46 54 56 54 52 52 49 45 44 39 49 68 74 68 77 76 69 58 70 63 59 67 72 95 84 164 225 102 66 37 18 11 360 8 102 139
302 294 289 299 28 53 58 63 66 59 52 48 48 48 52 50 38 42 55 52 61 70 73 77 68 72 86 72 73 54 61 44 57 78 72 58 58 34 1 354 14 11 74
298 292 278 48 69 73 77 76 66 59 55 52 48 45 53 41 33 29 50 65 70 67 78 119 112 106 48 332 298 81 64 46 24 75 72 63 50 14 356 283 271 127 96
302 305 333 77 80 89 86 75 69 65 58 53 52 55 52 42 21 0 35 136 151 60 49 44 49 60 4 331 182 118 115 111 86 91 102 97 54 36 20 7 13 149 117
310 336 62 82 100 92 83 80 73 74 70 65 55 55 98 80 26 3 22 65 62 84 73 49 33 25 7 23 104 131 128 158 133 131 131 119 117 69 48 39 24 29 24
332 69 82 89 87 92 90 84 87 89 90 87 102 67 63 57 35 19 19 270 79 89 82 76 55 349 25 32 48 45 42 360 88 110 120 109 68 51 56 45 44 50 44
89 89 88 88 95 91 94 101 110 118 98 80 75 76 69 59 32 27 24 48 75 78 70 80 46 326 37 30 52 356 347 5 74 80 78 66 69 64 71 64 55 59 56
94 94 95 95 90 102 117 120 111 110 105 104 85 83 62 68 83 48 41 51 76 103 99 117 202 256 342 51 41 56 60 93 103 84 79 69 71 80 86 80 87 73 60
104 105 102 101 124 143 137 32 95 89 80 78 70 61 54 45 24 39 71 78 351 91 129 37 40 44 63 69 62 64 52 68 67 74 78 74 70 64 63 51 52 58 74
106 107 107 114 105 81 58 53 68 52 46 65 59 57 69 63 37 327 30 45 37 352 22 91 84 78 67 64 47 56 64 74 63 64 70 64 69 65 54 52 56 64 57
111 104 123 147 110 106 94 81 54 61 49 45 40 52 79 35 308 12 39 41 73 39 74 75 60 60 62 48 46 61 43 76 59 69 67 65 66 63 64 60 59 65 62
112 139 175 120 111 111 108 101 95 72 61 39 35 43 38 23 14 355 338 83 98 96 74 55 63 51 56 61 37 52 61 70 69 65 55 73 73 69 63 64 65 70 68
149 207 127 112 114 113 116 135 112 103 98 94 58 56 45 32 20 6 294 292 79 100 89 69 69 72 49 72 40 57 61 79 70 71 70 67 74 69 68 66 62 69 74
156 178 112 111 106 135 110 110 114 114 114 115 116 107 91 70 39 25 27 57 63 55 64 76 76 72 54 73 57 52 66 83 80 68 56 77 88 80 77 77 74 69 76
169 82 102 129 148 119 116 105 94 81 76 62 53 74 82 66 62 56 52 54 54 54 60 58 65 65 65 66 66 60 63 78 86 92 79 89 83 88 92 83 93 91 89
115 136 124 127 113 103 88 83 87 89 83 78 69 51 22 69 63 62 59 52 54 54 56 59 62 63 62 68 61 61 64 78 81 83 82 87 127 102 97 89 81 101 107
138 133 121 105 101 98 100 103 102 98 97 94 89 77 45 68 65 63 58 53 51 49 51 59 61 59 53 46 74 64 63 76 85 89 82 76 86 112 120 102 97 76 96
123 112 110 98 99 121 112 105 96 90 86 83 78 72 67 65 64 62 60 60 58 54 48 42 56 56 59 60 54 34 42 70 70 73 73 79 71 78 81 81 76 75 63
111 109 121 126 112 105 97 92 88 81 89 87 81 76 71 70 69 66 63 60 58 61 63 64 56 52 54 64 56 47 34 359 86 82 68 80 85 81 84 86 86 79 75
131 123 109 112 107 114 121 105 97 93 92 88 84 81 78 76 72 70 67 65 66 67 60 58 61 59 56 56 49 38 20 8 28 58 88 94 87 89 84 79 81 84 93
121 117 118 121 115 111 109 106 102 99 93 87 82 80 79 77 73 70 68 71 69 61 61 64 63 60 62 49 40 29 18 15 26 33 85 75 72 79 79 80 77 71 65